Time,TemperatureF,DewpointF,PressureIn,WindDirection,WindDirectionDegrees,WindSpeedMPH,WindSpeedGustMPH,Humidity,HourlyPrecipIn,Conditions,Clouds,dailyrainin,SoftwareType,DateUTC
2013-10-20 00:13:00,51.0,41.0,29.75,South,178,0.0,3.0,69,0.00,,,0.00,,2013-10-20 05:13:00,
2013-10-20 00:23:00,50.0,40.0,29.75,South,179,0.0,1.0,69,0.00,,,0.00,,2013-10-20 05:23:00,
2013-10-20 00:43:00,50.0,40.0,29.74,South,179,0.0,2.0,69,0.00,,,0.00,,2013-10-20 05:43:00,
2013-10-20 00:52:00,50.0,41.0,29.74,South,180,0.0,2.0,70,0.00,,,0.00,,2013-10-20 05:52:00,
2013-10-20 01:12:00,50.0,41.0,29.74,South,181,0.0,3.0,70,0.00,,,0.00,,2013-10-20 06:12:00,
2013-10-20 01:22:00,50.0,41.0,29.73,South,181,0.0,2.0,71,0.00,,,0.00,,2013-10-20 06:22:00,
2013-10-20 01:52:00,49.0,40.0,29.72,South,181,0.0,0.0,72,0.00,,,0.00,,2013-10-20 06:52:00,
2013-10-20 02:12:00,49.0,41.0,29.72,South,181,0.0,1.0,73,0.00,,,0.00,,2013-10-20 07:12:00,
2013-10-20 02:22:00,48.0,40.0,29.71,South,181,0.0,1.0,73,0.00,,,0.00,,2013-10-20 07:22:00,
2013-10-20 02:42:00,48.0,40.0,29.71,South,181,0.0,2.0,74,0.00,,,0.00,,2013-10-20 07:42:00,
2013-10-20 02:52:00,48.0,40.0,29.71,South,181,0.0,0.0,75,0.00,,,0.00,,2013-10-20 07:52:00,
2013-10-20 03:11:00,48.0,41.0,29.71,South,181,0.0,0.0,76,0.00,,,0.00,,2013-10-20 08:11:00,
2013-10-20 03:22:00,47.0,40.0,29.70,South,181,0.0,0.0,77,0.00,,,0.00,,2013-10-20 08:22:00,
2013-10-20 03:42:00,46.0,40.0,29.70,South,181,0.0,0.0,78,0.00,,,0.00,,2013-10-20 08:42:00,
2013-10-20 03:52:00,46.0,40.0,29.70,South,181,0.0,0.0,80,0.00,,,0.00,,2013-10-20 08:52:00,
2013-10-20 04:11:00,45.0,40.0,29.70,South,181,0.0,0.0,81,0.00,,,0.00,,2013-10-20 09:11:00,
2013-10-20 04:21:00,44.0,39.0,29.70,South,181,0.0,0.0,82,0.00,,,0.00,,2013-10-20 09:21:00,
2013-10-20 04:43:00,44.0,39.0,29.70,South,181,0.0,0.0,83,0.00,,,0.00,,2013-10-20 09:43:00,
2013-10-20 04:53:00,44.0,39.0,29.70,South,181,0.0,0.0,84,0.00,,,0.00,,2013-10-20 09:53:00,
2013-10-20 05:12:00,43.0,39.0,29.70,South,181,0.0,0.0,85,0.00,,,0.00,,2013-10-20 10:12:00,
2013-10-20 05:23:00,43.0,39.0,29.70,South,181,0.0,0.0,86,0.00,,,0.00,,2013-10-20 10:23:00,
2013-10-20 05:53:00,42.0,38.0,29.70,South,181,0.0,0.0,87,0.00,,,0.00,,2013-10-20 10:53:00,
2013-10-20 06:12:00,42.0,39.0,29.71,South,181,0.0,0.0,88,0.00,,,0.00,,2013-10-20 11:12:00,
2013-10-20 06:22:00,42.0,39.0,29.71,South,181,0.0,0.0,88,0.00,,,0.00,,2013-10-20 11:22:00,
2013-10-20 06:42:00,42.0,39.0,29.71,South,181,0.0,0.0,88,0.00,,,0.00,,2013-10-20 11:42:00,
2013-10-20 06:52:00,41.0,38.0,29.71,South,181,0.0,0.0,89,0.00,,,0.00,,2013-10-20 11:52:00,
2013-10-20 07:11:00,41.0,38.0,29.70,South,181,0.0,0.0,89,0.00,,,0.00,,2013-10-20 12:11:00,
2013-10-20 07:21:00,41.0,38.0,29.70,South,181,0.0,1.0,90,0.00,,,0.00,,2013-10-20 12:21:00,
2013-10-20 07:42:00,41.0,38.0,29.70,South,181,0.0,2.0,90,0.00,,,0.00,,2013-10-20 12:42:00,
2013-10-20 07:52:00,41.0,39.0,29.70,South,181,0.0,1.0,91,0.00,,,0.00,,2013-10-20 12:52:00,
2013-10-20 08:11:00,42.0,40.0,29.70,South,181,0.0,3.0,91,0.00,,,0.00,,2013-10-20 13:11:00,
2013-10-20 08:21:00,42.0,40.0,29.70,South,180,0.0,4.0,91,0.00,,,0.00,,2013-10-20 13:21:00,
2013-10-20 08:42:00,44.0,42.0,29.70,South,176,1.0,4.0,91,0.00,,,0.00,,2013-10-20 13:42:00,
2013-10-20 08:52:00,45.0,42.0,29.71,SSE,153,3.0,8.0,90,0.00,,,0.00,,2013-10-20 13:52:00,
2013-10-20 09:12:00,47.0,43.0,29.71,South,173,5.0,8.0,85,0.00,,,0.00,,2013-10-20 14:12:00,
2013-10-20 09:22:00,49.0,43.0,29.71,SSE,160,3.0,10.0,79,0.00,,,0.00,,2013-10-20 14:22:00,
2013-10-20 09:42:00,50.0,43.0,29.72,SSE,158,4.0,8.0,76,0.00,,,0.00,,2013-10-20 14:42:00,
2013-10-20 09:52:00,53.0,43.0,29.72,South,169,6.0,11.0,68,0.00,,,0.00,,2013-10-20 14:52:00,
2013-10-20 10:11:00,54.0,43.0,29.73,ESE,117,3.0,10.0,67,0.00,,,0.00,,2013-10-20 15:11:00,
2013-10-20 10:22:00,56.0,44.0,29.73,SSE,155,5.0,14.0,64,0.00,,,0.00,,2013-10-20 15:22:00,
2013-10-20 10:44:00,57.0,44.0,29.72,SE,142,4.0,9.0,62,0.00,,,0.00,,2013-10-20 15:44:00,
2013-10-20 10:54:00,58.0,44.0,29.72,SSE,150,5.0,11.0,60,0.00,,,0.00,,2013-10-20 15:54:00,
2013-10-20 11:14:00,59.0,44.0,29.72,SE,126,3.0,14.0,58,0.00,,,0.00,,2013-10-20 16:14:00,
2013-10-20 11:24:00,60.0,45.0,29.71,South,187,5.0,11.0,57,0.00,,,0.00,,2013-10-20 16:24:00,
2013-10-20 11:43:00,61.0,46.0,29.71,SSE,168,5.0,14.0,57,0.00,,,0.00,,2013-10-20 16:43:00,
2013-10-20 11:54:00,61.0,46.0,29.70,ESE,118,5.0,18.0,57,0.00,,,0.00,,2013-10-20 16:54:00,
2013-10-20 12:12:00,62.0,46.0,29.70,ESE,116,5.0,13.0,56,0.00,,,0.00,,2013-10-20 17:12:00,
2013-10-20 12:23:00,63.0,46.0,29.70,South,175,4.0,14.0,53,0.00,,,0.00,,2013-10-20 17:23:00,
2013-10-20 12:42:00,64.0,45.0,29.68,ENE,74,6.0,12.0,51,0.00,,,0.00,,2013-10-20 17:42:00,
2013-10-20 12:52:00,66.0,47.0,29.68,SSE,150,3.0,12.0,50,0.00,,,0.00,,2013-10-20 17:52:00,
2013-10-20 13:12:00,67.0,46.0,29.67,ESE,113,6.0,15.0,47,0.00,,,0.00,,2013-10-20 18:12:00,
2013-10-20 13:22:00,68.0,46.0,29.66,ESE,108,6.0,13.0,46,0.00,,,0.00,,2013-10-20 18:22:00,
2013-10-20 13:42:00,68.0,46.0,29.65,ESE,109,9.0,16.0,46,0.00,,,0.00,,2013-10-20 18:42:00,
2013-10-20 13:52:00,68.0,45.0,29.64,South,175,8.0,14.0,44,0.00,,,0.00,,2013-10-20 18:52:00,
2013-10-20 14:12:00,69.0,46.0,29.63,SSE,150,7.0,15.0,43,0.00,,,0.00,,2013-10-20 19:12:00,
2013-10-20 14:22:00,70.0,45.0,29.62,South,183,6.0,15.0,41,0.00,,,0.00,,2013-10-20 19:22:00,
2013-10-20 14:42:00,70.0,45.0,29.61,SSE,161,5.0,10.0,41,0.00,,,0.00,,2013-10-20 19:42:00,
2013-10-20 14:52:00,70.0,46.0,29.60,ESE,117,6.0,13.0,43,0.00,,,0.00,,2013-10-20 19:52:00,
2013-10-20 15:11:00,70.0,45.0,29.59,ESE,121,9.0,17.0,41,0.00,,,0.00,,2013-10-20 20:11:00,
2013-10-20 15:22:00,71.0,46.0,29.58,ESE,116,5.0,17.0,41,0.00,,,0.00,,2013-10-20 20:22:00,
2013-10-20 15:43:00,71.0,46.0,29.57,ESE,116,7.0,14.0,41,0.00,,,0.00,,2013-10-20 20:43:00,
2013-10-20 15:52:00,71.0,45.0,29.57,SE,135,8.0,17.0,39,0.00,,,0.00,,2013-10-20 20:52:00,
2013-10-20 16:11:00,71.0,45.0,29.57,ESE,115,6.0,13.0,39,0.00,,,0.00,,2013-10-20 21:11:00,
2013-10-20 16:21:00,71.0,44.0,29.56,SSE,155,7.0,16.0,38,0.00,,,0.00,,2013-10-20 21:21:00,
2013-10-20 16:44:00,70.0,44.0,29.56,ESE,121,7.0,17.0,39,0.00,,,0.00,,2013-10-20 21:44:00,
2013-10-20 16:53:00,70.0,44.0,29.55,SE,142,9.0,16.0,39,0.00,,,0.00,,2013-10-20 21:53:00,
2013-10-20 17:13:00,70.0,45.0,29.55,SSE,153,7.0,12.0,40,0.00,,,0.00,,2013-10-20 22:13:00,
2013-10-20 17:23:00,71.0,46.0,29.55,SE,132,6.0,12.0,41,0.00,,,0.00,,2013-10-20 22:23:00,
2013-10-20 17:43:00,70.0,45.0,29.54,SE,126,5.0,15.0,41,0.00,,,0.00,,2013-10-20 22:43:00,
2013-10-20 17:53:00,69.0,44.0,29.54,ESE,107,8.0,15.0,41,0.00,,,0.00,,2013-10-20 22:53:00,
2013-10-20 18:13:00,69.0,45.0,29.54,SE,132,4.0,17.0,42,0.00,,,0.00,,2013-10-20 23:13:00,
2013-10-20 18:22:00,68.0,45.0,29.54,SE,133,6.0,18.0,43,0.00,,,0.00,,2013-10-20 23:22:00,
2013-10-20 18:42:00,68.0,45.0,29.54,SSE,153,5.0,17.0,43,0.00,,,0.00,,2013-10-20 23:42:00,
2013-10-20 18:52:00,67.0,45.0,29.54,SE,128,5.0,9.0,45,0.00,,,0.00,,2013-10-20 23:52:00,
2013-10-20 19:11:00,67.0,46.0,29.54,SSE,157,4.0,10.0,46,0.00,,,0.00,,2013-10-21 00:11:00,
2013-10-20 19:21:00,66.0,45.0,29.55,SE,144,3.0,7.0,47,0.00,,,0.00,,2013-10-21 00:21:00,
2013-10-20 19:43:00,65.0,45.0,29.55,SSE,149,4.0,11.0,49,0.00,,,0.00,,2013-10-21 00:43:00,
2013-10-20 19:52:00,65.0,46.0,29.55,ESE,112,4.0,14.0,50,0.00,,,0.00,,2013-10-21 00:52:00,
2013-10-20 20:12:00,64.0,45.0,29.55,South,172,3.0,8.0,51,0.00,,,0.00,,2013-10-21 01:12:00,
2013-10-20 20:21:00,63.0,45.0,29.55,East,98,3.0,10.0,52,0.00,,,0.00,,2013-10-21 01:21:00,
2013-10-20 20:42:00,63.0,46.0,29.56,SE,142,3.0,9.0,53,0.00,,,0.00,,2013-10-21 01:42:00,
2013-10-20 20:52:00,62.0,45.0,29.56,South,174,2.0,6.0,54,0.00,,,0.00,,2013-10-21 01:52:00,
2013-10-20 21:12:00,62.0,46.0,29.56,SSE,163,2.0,5.0,56,0.00,,,0.00,,2013-10-21 02:12:00,
2013-10-20 21:22:00,62.0,46.0,29.56,SE,140,2.0,6.0,56,0.00,,,0.00,,2013-10-21 02:22:00,
2013-10-20 21:42:00,61.0,46.0,29.56,SE,131,1.0,7.0,57,0.00,,,0.00,,2013-10-21 02:42:00,
2013-10-20 21:52:00,61.0,46.0,29.56,SE,138,1.0,8.0,57,0.00,,,0.00,,2013-10-21 02:52:00,
2013-10-20 22:12:00,61.0,46.0,29.56,SSE,165,2.0,7.0,58,0.00,,,0.00,,2013-10-21 03:12:00,
2013-10-20 22:22:00,60.0,46.0,29.56,SSE,168,2.0,6.0,59,0.00,,,0.00,,2013-10-21 03:22:00,
2013-10-20 22:45:00,60.0,47.0,29.56,ESE,117,2.0,8.0,61,0.00,,,0.00,,2013-10-21 03:45:00,
2013-10-20 22:54:00,59.0,46.0,29.56,SSE,160,3.0,9.0,62,0.00,,,0.00,,2013-10-21 03:54:00,
2013-10-20 23:13:00,60.0,47.0,29.56,SE,146,3.0,11.0,62,0.00,,,0.00,,2013-10-21 04:13:00,
2013-10-20 23:24:00,60.0,47.0,29.56,SE,138,4.0,11.0,62,0.00,,,0.00,,2013-10-21 04:24:00,
2013-10-20 23:44:00,60.0,47.0,29.56,SE,131,4.0,11.0,62,0.00,,,0.00,,2013-10-21 04:44:00,
2013-10-20 23:53:00,60.0,48.0,29.56,ESE,117,2.0,9.0,64,0.00,,,0.00,,2013-10-21 04:53:00,